Logansport, IN

8:13 AM EDT on May 23, 2017 (GMT -0400)
Logansport Municipal

Weather History for KGGP - December, 2012

Change the Weather History Date:

Thursday, December 6, 2012

  Actual Average Record
Temperature  
Mean Temperature 35 °F -  
Max Temperature 42 °F 37 °F 51 °F (2015)
Min Temperature 28 °F 25 °F 17 °F (2013)
Degree Days  
Heating Degree Days 30    
Moisture  
Dew Point 34 °F    
Average Humidity 86    
Maximum Humidity 93    
Minimum Humidity 70    
Precipitation  
Precipitation 0.00 in - - ()
Sea Level Pressure  
Sea Level Pressure 30.04 in    
Wind  
Wind Speed 6 mph (SE)    
Max Wind Speed 10 mph    
Max Gust Speed -    
Visibility 9 miles    
Events      
Averages and records for this station are not official NWS values.
T = Trace of Precipitation, MM = Missing Value Source: NWS Daily Summary

Daily Weather History Graph

Daily Weather History Graph

Search for Another Location

Airport or City:

Trip Planner

Search our weather history database for the weather conditions in past years. The results will help you decide how hot, cold, wet, or windy it might be!

Date:

Astronomy

Dec. 06, 2012 Rise Set
Actual Time 7:55 AM EST 5:17 PM EST
Civil Twilight 7:24 AM EST 5:48 PM EST
Nautical Twilight 6:50 AM EST 6:22 PM EST
Astronomical Twilight 6:17 AM EST 6:55 PM EST
Moon 12:08 AM EST (12/6) 12:46 PM EST (12/6)
Length of Visible Light 10h 23m
Length of Day
9h 22m
Waning Gibbous, 49% of the Moon is Illuminated
Dec 6
Waning Gibbous
Dec 13
New
Dec 20
First Quarter
Dec 28
Full
Jan 4
Last Quarter

Hourly Weather History & Observations

Time (EST) Temp. Windchill Dew Point Humidity Pressure Visibility Wind Dir Wind Speed Gust Speed Precip Events Conditions
12:15 AM 30.2 °F 21.3 °F 26.6 °F 86% 30.26 in 10.0 mi ESE 10.4 mph - N/A   Clear
8:35 AM 28.4 °F 21.2 °F 26.6 °F 93% 30.18 in 7.0 mi ESE 6.9 mph - N/A   Clear
8:55 AM 30.2 °F 23.4 °F 26.6 °F 86% 30.16 in 7.0 mi ESE 6.9 mph - N/A   Clear
9:15 AM 30.2 °F 25.4 °F 28.4 °F 93% 30.17 in 7.0 mi ESE 4.6 mph - N/A   Clear
9:35 AM 30.2 °F 24.3 °F 28.4 °F 93% 30.16 in 7.0 mi ESE 5.8 mph - N/A   Clear
9:55 AM 32.0 °F 26.4 °F 28.4 °F 87% 30.16 in 7.0 mi ESE 5.8 mph - N/A   Clear
10:15 AM 32.0 °F 27.5 °F 28.4 °F 87% 30.16 in 7.0 mi East 4.6 mph - N/A   Clear
10:35 AM 32.0 °F 28.7 °F 30.2 °F 93% 30.16 in 7.0 mi East 3.5 mph - N/A   Clear
10:55 AM 32.0 °F 28.7 °F 30.2 °F 93% 30.16 in 7.0 mi ESE 3.5 mph - N/A   Clear
11:15 AM 32.0 °F 25.6 °F 30.2 °F 93% 30.14 in 10.0 mi SE 6.9 mph - N/A   Clear
11:35 AM 33.8 °F 26.4 °F 30.2 °F 87% 30.12 in 10.0 mi SE 9.2 mph - N/A   Clear
11:55 AM 33.8 °F 26.4 °F 32.0 °F 93% 30.10 in 10.0 mi SE 9.2 mph - N/A   Clear
12:15 PM 35.6 °F 29.2 °F 32.0 °F 87% 30.09 in 10.0 mi SSE 8.1 mph - N/A   Clear
12:35 PM 37.4 °F 30.8 °F 32.0 °F 81% 30.08 in 10.0 mi SSE 9.2 mph - N/A   Clear
12:55 PM 39.2 °F 33.6 °F 32.0 °F 75% 30.08 in 10.0 mi SSE 8.1 mph - N/A   Clear
1:15 PM 39.2 °F 34.2 °F 33.8 °F 81% 30.06 in 10.0 mi East 6.9 mph - N/A   Clear
1:35 PM 39.2 °F 35.0 °F 33.8 °F 81% 30.06 in 10.0 mi SSE 5.8 mph - N/A   Clear
1:55 PM 41.0 °F 39.0 °F 33.8 °F 76% 30.05 in 10.0 mi SE 3.5 mph - N/A   Clear
2:15 PM 41.0 °F 37.1 °F 33.8 °F 76% 30.03 in 10.0 mi SE 5.8 mph - N/A   Clear
2:35 PM 41.0 °F 37.1 °F 33.8 °F 76% 30.02 in 10.0 mi SE 5.8 mph - N/A   Clear
2:55 PM 42.8 °F 39.3 °F 33.8 °F 70% 30.01 in 10.0 mi SE 5.8 mph - N/A   Clear
3:15 PM 42.8 °F 40.1 °F 35.6 °F 76% 30.01 in 10.0 mi SE 4.6 mph - N/A   Clear
3:35 PM 42.8 °F 39.3 °F 35.6 °F 76% 30.01 in 10.0 mi SE 5.8 mph - N/A   Clear
3:55 PM 42.8 °F 39.3 °F 35.6 °F 76% 30.01 in 10.0 mi SE 5.8 mph - N/A   Clear
4:15 PM 42.8 °F 39.3 °F 35.6 °F 76% 30.01 in 10.0 mi SE 5.8 mph - N/A   Clear
4:35 PM 42.8 °F 39.3 °F 35.6 °F 76% 30.01 in 10.0 mi SE 5.8 mph - N/A   Clear
4:55 PM 41.0 °F 38.0 °F 35.6 °F 81% 30.01 in 10.0 mi SE 4.6 mph - N/A   Clear
5:15 PM 41.0 °F 37.1 °F 35.6 °F 81% 29.99 in 7.0 mi SE 5.8 mph - N/A   Clear
5:35 PM 41.0 °F 38.0 °F 35.6 °F 81% 29.99 in 10.0 mi ESE 4.6 mph - N/A   Clear
5:55 PM 39.2 °F 35.9 °F 35.6 °F 87% 29.99 in 7.0 mi ESE 4.6 mph - N/A   Clear
6:15 PM 41.0 °F 37.1 °F 35.6 °F 81% 29.98 in 10.0 mi ESE 5.8 mph - N/A   Clear
6:35 PM 39.2 °F 35.9 °F 35.6 °F 87% 29.98 in 7.0 mi SE 4.6 mph - N/A   Clear
6:55 PM 37.4 °F 34.9 °F 35.6 °F 93% 29.99 in 7.0 mi ESE 3.5 mph - N/A   Clear
7:15 PM 37.4 °F 34.9 °F 35.6 °F 93% 29.98 in 7.0 mi East 3.5 mph - N/A   Clear
7:35 PM 37.4 °F 34.9 °F 35.6 °F 93% 29.98 in 7.0 mi East 3.5 mph - N/A   Clear
7:55 PM 37.4 °F 33.8 °F 35.6 °F 93% 29.98 in 7.0 mi East 4.6 mph - N/A   Clear
8:15 PM 37.4 °F - 35.6 °F 93% 29.99 in 7.0 mi Calm Calm - N/A   Scattered Clouds
8:55 PM 37.4 °F 33.8 °F 35.6 °F 93% 29.98 in 10.0 mi SE 4.6 mph - N/A   Mostly Cloudy
9:35 PM 37.4 °F - 35.6 °F 93% 29.98 in 10.0 mi Calm Calm - N/A   Mostly Cloudy
9:55 PM 37.4 °F - 35.6 °F 93% 29.98 in 10.0 mi Calm Calm - N/A   Overcast
10:15 PM 37.4 °F - 35.6 °F 93% 29.97 in 10.0 mi Calm Calm - N/A   Overcast
10:35 PM 39.2 °F 35.9 °F 37.4 °F 93% 29.97 in 10.0 mi SE 4.6 mph - N/A   Overcast
10:55 PM 39.2 °F 34.2 °F 37.4 °F 93% 29.96 in 10.0 mi SSE 6.9 mph - N/A   Overcast
11:15 PM 41.0 °F 37.1 °F 37.4 °F 87% 29.95 in 10.0 mi SSE 5.8 mph - N/A   Overcast
11:35 PM 41.0 °F 38.0 °F 37.4 °F 87% 29.95 in 10.0 mi South 4.6 mph - N/A   Mostly Cloudy
11:55 PM 39.2 °F 35.9 °F 35.6 °F 87% 29.95 in 10.0 mi South 4.6 mph - N/A   Scattered Clouds